Regional Weather Roundup
Issued by NWS

Home | Current Version | Previous Version | Text Only | Print | Product List | Glossary On
Versions: 1 2 3 4 5 6 7 8 9 10 11 12 13 14 15 16 17 18 19 20 21 22 23 24 25 26 27 28 29 30 31 32 33 34 35 36 37 38 39 40 41 42 43 44 45 46 47 48 49 50
582
ASUS43 KLOT 280807
RWRIL

ILLINOIS REGIONAL WEATHER ROUNDUP
NATIONAL WEATHER SERVICE CHICAGO/ROMEOVILLE IL
300 AM CDT FRI APR 28 2017

NOTE: "FAIR" INDICATES FEW OR NO CLOUDS BELOW 12,000 FEET WITH NO
SIGNIFICANT WEATHER AND/OR OBSTRUCTIONS TO VISIBILITY.

* THESE STATIONS ARE NOT UNDER NWS QUALITY CONTROL. THEY ALSO MAY NOT
  REPORT WEATHER SUCH AS PRECIPITATION OR FOG.

ILZ001-002-007-009-015-016-024-280900-
NORTHWEST ILLINOIS

CITY           SKY/WX    TMP DP  RH WIND       PRES   REMARKS
MOLINE         CLOUDY    40  37  89 CALM      29.86F
STERLING*      PTCLDY    39  36  89 CALM      29.88S
SAVANNA*       PTCLDY    36  34  95 CALM      29.88S
$$

ILZ003-004-008-010-011-017-018-280900-
NORTH CENTRAL ILLINOIS

CITY           SKY/WX    TMP DP  RH WIND       PRES   REMARKS
ROCKFORD       MOCLDY    39  34  82 W3        29.88F
FREEPORT*      PTCLDY    36  32  86 W3        29.88F
ROCHELLE*      PTCLDY    38  36  92 CALM      29.88S
DE KALB*       PTCLDY    38  36  91 W5        29.88S WCI  34
PERU*          CLOUDY    41  39  91 N6        29.87F
$$

ILZ005-006-012>014-019>023-280900-
NORTHEAST ILLINOIS

CITY           SKY/WX    TMP DP  RH WIND       PRES   REMARKS
CHICAGO-OHARE  CLOUDY    41  36  82 W5        29.87S
CHICAGO-MIDWAY CLOUDY    43  38  82 CALM      29.88S
AURORA         PTCLDY    38  35  89 CALM      29.88S
LANSING*       PTCLDY    42  41  98 SW5       29.88S
JOLIET*        MOCLDY    40  40  99 CALM      29.89R
WAUKEGAN       PTCLDY    41  36  82 W5        29.85S
DUPAGE AIRPORT CLOUDY    39  38  96 CALM      29.87S
KANKAKEE*      PTCLDY    46  44  94 CALM      29.89S
WHEELING       PTCLDY    42  38  85 W5        29.88S
MORRIS*        CLOUDY    41  40  95 CALM      29.88R
ROMEOVILLE*    PTCLDY    40  40 100 CALM      29.88S
NORTHERLY ISL    N/A     44  37  76 SW2         N/A
$$

LMZ740>746-280900-
SOUTHERN LAKE MICHIGAN

STATION/POSITION SKY/WX   TEMP    WIND        PRES    VSBY  WAVE
                          AIR SEA DIR/SP/G                  HT/PER
                          (F)     (DEG/KT/KT) (MB)    (MI)  (FT/S)
SOUTHERN BUOY              43 41  260/ 12/ 16 1011.4          3/ 4
HARRISON CRIB              46     270/  9/ 10   N/A
BURNHAM HARBOR             45     290/  3/  5   N/A
CALUMET HARBOR             43     240/  2/  4 1011.5R
BURNS HARBOR               45     190/  7/  9 1012.5F
MICHIGAN CITY              44     180/  2/  3   N/A
MICHIGAN CITY 6N           45 47                N/A           1/ 3
ST. JOSEPH                 45 48  240/  4/  4 1013.1          2/ 4
$$

ILZ025>027-034>036-040-047-049-050-058-095>099-280900-
WEST-CENTRAL ILLINOIS

CITY           SKY/WX    TMP DP  RH WIND       PRES   REMARKS
QUINCY         CLOUDY    51  45  79 SE6       29.83R
GALESBURG*     CLOUDY    43  41  94 NE3       29.83R
MACOMB*        CLOUDY    47  46  93 CALM      29.85S
JACKSONVILLE*  CLOUDY    51  46  85 SE9       29.85R
PITTSFIELD*    MOCLDY    51  47  84 CALM      29.85R
$$

ILZ028>032-037-038-041>044-048-051>054-059>061-280900-
CENTRAL ILLINOIS

CITY           SKY/WX    TMP DP  RH WIND       PRES   REMARKS
PONTIAC        CLOUDY    48  47  98 E3        29.85F
BLOOMINGTON    CLOUDY    46  44  93 SE5       29.84F
DECATUR        CLOUDY    47  46  97 S7        29.86R
PEORIA         PTCLDY    49  44  83 CALM      29.84S
LACON*         CLOUDY    44  44  98 N3        29.83F
LINCOLN*       CLOUDY    49  47  95 SE3       29.84S
SPRINGFIELD    MOCLDY    51  46  83 S8        29.85R
TAYLORVILLE    CLOUDY    49  46  90 SE7       29.85F
$$

ILZ033-039-045-046-055>057-062-063-280900-
EAST-CENTRAL ILLINOIS

CITY           SKY/WX    TMP DP  RH WIND       PRES   REMARKS
CHAMPAIGN      PTCLDY    47  43  86 SE8       29.84F
RANTOUL*       CLOUDY    48  46  90 SE5       29.85F
MATTOON        CLOUDY    47  45  93 SE5       29.86S
PARIS*         PTCLDY    47  44  90 E8        29.87F
$$

ILZ079-100>102-280900-
SOUTHWEST ILLINOIS

CITY           SKY/WX    TMP DP  RH WIND       PRES   REMARKS
ALTON          CLOUDY    52  48  87 SE3       29.86R
BELLEVILLE     MOCLDY    52  52 100 CALM      29.84R
CAHOKIA*       CLOUDY    54  49  83 E3        29.84R
SPARTA*        CLOUDY    54  48  82 SE6       29.86R
$$

ILZ064>066-069>071-074>076-080>082-084>086-088>090-092>094-280900-
SOUTH-CENTRAL ILLINOIS

CITY           SKY/WX    TMP DP  RH WIND       PRES   REMARKS
CARBONDALE     CLOUDY    52  51  97 S6        29.87R
CAIRO*         CLOUDY    55  52  89 E3        29.85F
EFFINGHAM*     PTCLDY    49  49 100 E6        29.88S
MARION         CLOUDY    54  54 100 SE6       29.87S
MT. VERNON     CLOUDY    52  48  86 SE5       29.85F
CENTRALIA*     MOCLDY    53  49  89 SW3       29.86R
SALEM*         MOCLDY    52  47  84 CALM      29.85F
METROPOLIS*    CLOUDY    54  51  90 CALM      29.88R
$$

ILZ067-068-072-073-078-083-087-091-280900-
SOUTHEAST ILLINOIS

CITY           SKY/WX    TMP DP  RH WIND       PRES   REMARKS
LAWRENCEVILLE  PTCLDY    47  46  97 E7        29.90F
FLORA*         PTCLDY    50  48  92 SE8       29.88F
FAIRFIELD*     MOCLDY    50  48  93 E3        29.85F
HARRISBURG*    CLOUDY    52  50  93 E3        29.88F
ROBINSON*      PTCLDY    46  45  97 S6        29.91S
CARMI*         CLOUDY    49  49  99 NE3       29.88S
$$

ABBREVIATIONS USED IN REMARKS
   TC - TEMPERATURE IN CELSIUS
  WCI - WIND CHILL INDEX
   HX - HEAT INDEX
  VSB - VISIBILITY
$$





USA.gov is the U.S. government's official web portal to all federal, state and local government web resources and services.